Facebook

   
     
Pulvinar tempor cras amet ac turpis tristique tristique ... (read more) close

İNSECTA has 100516 registered users

Userlist

# Status Avatar Username Posts Karma Join date Last login Hits
1651 OFFLINE neewzene's Avatar neewzene 0 0 09 May 2017 09:35 18 Tem 2017 07:19 91
1652 OFFLINE Harryvek's Avatar Harryvek 0 0 09 May 2017 12:59 09 May 2017 14:02 91
1653 OFFLINE skpointRoole's Avatar skpointRoole 0 0 09 May 2017 13:25 09 May 2017 14:29 93
1654 OFFLINE lifagiaddy's Avatar lifagiaddy 0 0 09 May 2017 15:16 18 Tem 2017 15:05 79
1655 OFFLINE Geferuntert's Avatar Geferuntert 0 0 09 May 2017 16:05 18 Tem 2017 17:04 91
1656 OFFLINE kotorokon856's Avatar kotorokon856 0 0 09 May 2017 17:19 09 May 2017 18:19 97
1657 OFFLINE DavidBut's Avatar DavidBut 0 0 09 May 2017 17:40 09 May 2017 18:59 94
1658 OFFLINE Chieliafielo's Avatar Chieliafielo 0 0 09 May 2017 17:49 18 Tem 2017 20:17 90
1659 OFFLINE wadethave's Avatar wadethave 0 0 09 May 2017 19:30 18 Tem 2017 21:42 90
1660 OFFLINE PhepeHom's Avatar PhepeHom 0 0 09 May 2017 20:39 18 Tem 2017 23:01 82
1661 OFFLINE StankRok's Avatar StankRok 0 0 09 May 2017 21:22 19 Tem 2017 09:55 95
1662 OFFLINE Maria's Avatar Maria 0 0 10 May 2017 03:25 10 May 2017 04:25 94
1663 OFFLINE AlenaEmutt's Avatar AlenaEmutt 0 0 10 May 2017 03:43 14 Nis 2018 20:15 92
1664 OFFLINE gruz24FLile's Avatar gruz24FLile 0 0 10 May 2017 06:00 10 May 2017 07:16 94
1665 OFFLINE WRIGGEDY's Avatar WRIGGEDY 0 0 10 May 2017 06:44 19 Tem 2017 11:16 89
1666 OFFLINE WatVoittee's Avatar WatVoittee 0 0 10 May 2017 08:29 19 Tem 2017 15:14 94
1667 OFFLINE MerleGlilt's Avatar MerleGlilt 0 0 10 May 2017 08:41 10 May 2017 12:19 91
1668 OFFLINE BrantGox's Avatar BrantGox 0 0 10 May 2017 09:23 10 May 2017 11:05 84
1669 OFFLINE TufailHall's Avatar TufailHall 0 0 10 May 2017 09:25 10 May 2017 11:15 90
1670 OFFLINE NingalHof's Avatar NingalHof 0 0 10 May 2017 09:25 10 May 2017 11:14 89
1671 OFFLINE celendawaw's Avatar celendawaw 0 0 10 May 2017 10:00 19 Tem 2017 17:14 91
1672 OFFLINE AliKl's Avatar AliKl 0 0 10 May 2017 10:02 10 May 2017 11:19 97
1673 OFFLINE Sibur-NaradEr's Avatar Sibur-NaradEr 0 0 10 May 2017 10:03 10 May 2017 11:24 93
1674 OFFLINE teelfFed's Avatar teelfFed 0 0 10 May 2017 10:38 10 May 2017 11:43 93
1675 OFFLINE Hogarol's Avatar Hogarol 0 0 10 May 2017 11:03 10 May 2017 12:33 85
1676 OFFLINE AbeBict's Avatar AbeBict 0 0 10 May 2017 11:03 10 May 2017 12:39 90
1677 OFFLINE rosaline5683851's Avatar rosaline5683851 0 0 10 May 2017 11:07 10 May 2017 12:07 96
1678 OFFLINE TipplerFeN's Avatar TipplerFeN 0 0 10 May 2017 11:07 10 May 2017 12:54 90
1679 OFFLINE BrontobbDUh's Avatar BrontobbDUh 0 0 10 May 2017 11:07 10 May 2017 12:57 93
1680 OFFLINE MitchPa's Avatar MitchPa 0 0 10 May 2017 11:11 10 May 2017 12:53 87

Who Is Online

Total users online: 0 Members and 15 Guests Online
Legend:  Site Administrator Global Moderator Moderator Banned User Guest

Kunena Statistics

  • Toplum Üye: 100.5k
  • Son Üye elekhivr
  • Toplam Mesaj: 21
  • Toplam Konu: 14
  • Toplam Bölüm: 3
  • Toplam Kategori: 10
  • Bugün Açılan: 0
  • Dün Açılan: 0
  • Bugün Cevaplar: 0
  • Dün Cevaplar: 0

Custom HTML

Time to create page: 4.150 seconds

Copyright © 2013 İnsecta Haşere Kontrol Hizmetleri